Home   Weather   Bucharest   Past weeks

Flag for Romania Past Weather in Bucharest, Romania — Yesterday and Last 2 Weeks

Now
54 °F

Clear.


Feels Like: 52 °F
Forecast: 45 / 78 °F
Wind: 6 mph from East

Location: Bucharest / Imh

Current Time: Apr 27, 2017 at 12:56:41 am

Latest Report: Apr 27, 2017 at 12:00 am


Visibility: 10 mi

Pressure: 30.01 "Hg

Humidity: 77%

Dew Point: 46 °F

Location of BucharestLocation

Past Weather in Bucharest — Graph

°F

Bucharest Temperature Yesterday

Maximum temperature yesterday: 75 °F (at 4:30 pm)
Minimum temperature yesterday: 39 °F (at 6:00 am)
Average temperature yesterday: 58 °F

High & Low Weather Summary for the Past Weeks

 TemperatureHumidityPressure
High75 °F (Apr 26, 4:30 pm)100% (Apr 17, 1:00 am)30.18 "Hg (Apr 17, 1:00 am)
Low34 °F (Apr 20, 10:00 pm)21% (Apr 15, 5:00 pm)29.74 "Hg (Apr 13, 5:30 pm)
Average50 °F67%29.98 "Hg
* Reported Apr 11 11:00 pm — Apr 26 11:30 pm, Bucharest, Weather by CustomWeather, © 2017

Note: Actual official high and low records may vary slightly from our data, if they occured in-between our weather recording intervals... More about our weather records

Advertising

Bucharest Weather History for the Previous 24 Hours

Scroll right to see more
 ConditionsComfort  
Time TempWeatherWind HumidityBarometerVisibility
11:30 pm
Wed, Apr 26
55 °FClear.6 mph72%30.01 "Hg10 mi
10:30 pm61 °FPassing clouds.7 mph59%30.01 "HgN/A
10:00 pm57 °FClear.6 mph67%30.01 "Hg10 mi
9:30 pm59 °FClear.6 mph68%30.01 "Hg10 mi
9:00 pm66 °FClear.2 mph46%30.01 "Hg10 mi
8:30 pm66 °FClear.2 mph43%29.98 "Hg10 mi
8:00 pm68 °FSunny.5 mph40%29.98 "Hg10 mi
7:30 pm72 °FPassing clouds.3 mph29%29.98 "HgN/A
7:00 pm73 °FPassing clouds.5 mph31%29.98 "HgN/A
6:30 pm75 °FPassing clouds.5 mph31%29.98 "HgN/A
6:00 pm75 °FPassing clouds.6 mph27%30.01 "HgN/A
5:30 pm75 °FPassing clouds.7 mph27%30.01 "HgN/A
5:00 pm75 °FPassing clouds.7 mph31%30.01 "HgN/A
4:30 pm75 °FSunny.2 mph25%30.01 "Hg10 mi
4:00 pm73 °FSunny.5 mph29%30.04 "Hg10 mi
3:00 pm73 °FPassing clouds.7 mph29%30.04 "HgN/A
2:30 pm72 °FPassing clouds.5 mph33%30.04 "HgN/A
2:00 pm72 °FSunny.7 mph33%30.04 "Hg10 mi
1:30 pm70 °FPassing clouds.6 mph35%30.07 "HgN/A
1:00 pm68 °FSunny.5 mph40%30.07 "Hg10 mi
12:30 pm68 °FSunny.2 mph38%30.07 "Hg10 mi
12:00 pm64 °FSunny.3 mph46%30.07 "Hg10 mi
11:30 am64 °FSunny.1 mph43%30.09 "Hg10 mi
11:00 am63 °FSunny.1 mph42%30.09 "Hg10 mi
10:30 am61 °FPassing clouds.3 mph42%30.07 "HgN/A
10:00 am57 °FPassing clouds.3 mph51%30.09 "HgN/A
9:30 am55 °FPassing clouds.3 mph55%30.09 "HgN/A
9:00 am52 °FSunny.2 mph62%30.09 "Hg10 mi
8:30 am48 °FPassing clouds.3 mph66%30.09 "HgN/A
8:00 am46 °FSunny.3 mph71%30.09 "Hg10 mi
7:30 am45 °FSunny.3 mph81%30.07 "Hg10 mi
7:00 am41 °FSunny.3 mph87%30.07 "Hg10 mi
6:30 am39 °FSunny.2 mph93%30.07 "Hg10 mi
6:00 am39 °FClear.3 mph93%30.07 "Hg10 mi
5:30 am41 °FClear.3 mph87%30.07 "Hg10 mi
5:00 am43 °FClear.2 mph81%30.07 "Hg10 mi
4:30 am43 °FClear.3 mph87%30.07 "Hg10 mi
4:00 am43 °FClear.3 mph87%30.07 "Hg10 mi
3:30 am45 °FClear.3 mph81%30.07 "Hg10 mi
3:00 am45 °FClear.5 mph81%30.07 "Hg10 mi
2:30 am45 °FClear.5 mph81%30.07 "Hg10 mi
2:00 am46 °FClear.2 mph76%30.07 "Hg10 mi
1:30 am48 °FClear.3 mph71%30.07 "Hg10 mi
1:00 am55 °FClear.2 mph55%30.07 "Hg10 mi
12:30 am54 °FPassing clouds.3 mph58%30.07 "HgN/A
12:00 am55 °FClear.3 mph55%30.07 "Hg10 mi
Weather by CustomWeather, © 2017

See weather overviewHow to use our weather pages